User: anonymous   Login
Location: Unspecified
(0.0000°N, 0.0000°E)
Time: 21:38:45
(UTC+00:00)
Language:

STRAND 1 - Orbit

View from above orbital plane
View from above orbital plane
View from above satellite
View from above satellite

Ground track
Ground track

The orbit data is extracted from the following two-line orbital elements,

1 39090U 13009E   18343.81516034  .00000034  00000-0  26977-4 0  9993
2 39090  98.5025 187.7669 0009924 131.4246 228.7794 14.35061855303015
Epoch (UTC): 09 December 2018 19:33:49
Eccentricity: 0.0009924
inclination: 98.5025°
perigee height: 768 km
apogee height: 782 km
right ascension of ascending node: 187.7669°
argument of perigee: 131.4246°
revolutions per day: 14.35061855
mean anomaly at epoch: 228.7794°
orbit number at epoch: 30301

The dashed part of the orbit path shows where the satellite is in the earth's shadow,  

DLR